Weather History for Wise, VA

Change the Weather History Date:

Thursday, April 3, 2014

  Actual Average Record
Temperature  
Mean Temperature 65 °F -  
Max Temperature 77 °F 58 °F 77 °F (1999)
Min Temperature 53 °F 39 °F 26 °F (2013)
Growing Degree Days 15 (Base 50)    
Moisture  
Dew Point 46 °F    
Average Humidity 55    
Maximum Humidity 100    
Minimum Humidity 29    
Precipitation  
Precipitation 0.04 in - - ()
Sea Level Pressure  
Sea Level Pressure 30.01 in    
Wind  
Wind Speed 9 mph (SW)    
Max Wind Speed 24 mph    
Max Gust Speed 37 mph    
Visibility 10 miles    
Events Rain , Thunderstorm    
Averages and records for this station are not official NWS values.
T = Trace of Precipitation, MM = Missing Value Source: NWS Daily Summary

Daily Weather History Graph

Daily Weather History Graph

Search for Another Location

Airport:

Trip Planner

Search our weather history database for the weather conditions in past years. The results will help you decide how hot, cold, wet, or windy it might be!

Date:

Astronomy

Apr. 03, 2014 Rise Set
Actual Time 7:12 AM EDT 7:54 PM EDT
Civil Twilight 6:46 AM EDT 8:20 PM EDT
Nautical Twilight 6:15 AM EDT 8:51 PM EDT
Astronomical Twilight 5:44 AM EDT 9:23 PM EDT
Moon 9:45 AM EDT (4/3) No Moon Set
Length of Visible Light 13h 33m
Length of Day
12h 41m
Waxing Crescent, 17% of the Moon is Illuminated
Apr 3
Waxing Crescent
Apr 7
First Quarter
Apr 15
Full
Apr 22
Last Quarter
Apr 29
New

Hourly Weather History & Observations

Time (EDT) Temp. Dew Point Humidity Pressure Visibility Wind Dir Wind Speed Gust Speed Precip Events Conditions
12:15 AM 60.8 °F 41.0 °F 48% 30.10 in 10.0 mi Calm Calm - N/A   Clear
12:35 AM 62.6 °F 41.0 °F 45% 30.09 in 10.0 mi Calm Calm - N/A   Clear
12:55 AM 59.0 °F 41.0 °F 51% 30.09 in 10.0 mi SSW 5.8 mph - N/A   Clear
1:15 AM 60.8 °F 39.2 °F 45% 30.09 in 10.0 mi SW 9.2 mph - N/A   Clear
1:35 AM 62.6 °F 35.6 °F 37% 30.07 in 10.0 mi SW 9.2 mph - N/A   Clear
1:55 AM 62.6 °F 35.6 °F 37% 30.07 in 10.0 mi SW 11.5 mph - N/A   Clear
2:15 AM 62.6 °F 33.8 °F 34% 30.07 in 10.0 mi SW 10.4 mph - N/A   Clear
2:35 AM 62.6 °F 33.8 °F 34% 30.05 in 10.0 mi SW 10.4 mph - N/A   Clear
2:55 AM 62.6 °F 35.6 °F 37% 30.05 in 10.0 mi SW 11.5 mph - N/A   Clear
3:15 AM 62.6 °F 35.6 °F 37% 30.05 in 10.0 mi SW 10.4 mph 17.3 mph N/A   Clear
3:35 AM 62.6 °F 35.6 °F 37% 30.05 in 10.0 mi SW 12.7 mph - N/A   Clear
3:55 AM 62.6 °F 37.4 °F 39% 30.05 in 10.0 mi WSW 13.8 mph 18.4 mph N/A   Clear
4:15 AM 62.6 °F 37.4 °F 39% 30.05 in 10.0 mi SW 10.4 mph - N/A   Clear
4:35 AM 62.6 °F 37.4 °F 39% 30.05 in 10.0 mi SW 12.7 mph 17.3 mph N/A   Scattered Clouds
4:55 AM 62.6 °F 37.4 °F 39% 30.05 in 10.0 mi SW 9.2 mph - N/A   Scattered Clouds
5:15 AM 62.6 °F 39.2 °F 42% 30.05 in 10.0 mi SW 10.4 mph - N/A   Mostly Cloudy
5:35 AM 62.6 °F 41.0 °F 45% 30.06 in 10.0 mi SW 15.0 mph 19.6 mph N/A   Overcast
5:55 AM 59.0 °F 44.6 °F 59% 30.07 in 10.0 mi WSW 12.7 mph 19.6 mph N/A Rain Light Rain
6:15 AM 55.4 °F 46.4 °F 72% 30.07 in 10.0 mi WSW 10.4 mph - 0.01 in Rain Rain
6:35 AM 55.4 °F 48.2 °F 77% 30.09 in 10.0 mi SW 11.5 mph - 0.01 in Rain Light Rain
6:55 AM 55.4 °F 53.6 °F 94% 30.09 in 10.0 mi South 5.8 mph - 0.03 in Rain Rain
7:15 AM 53.6 °F 53.6 °F 100% 30.08 in 10.0 mi South 4.6 mph - N/A Rain Light Rain
7:35 AM 57.2 °F 53.6 °F 88% 30.07 in 10.0 mi South 9.2 mph - N/A   Overcast
8:15 AM 57.2 °F 50.0 °F 77% 30.07 in 10.0 mi South 11.5 mph - N/A   Mostly Cloudy
8:35 AM 57.2 °F 50.0 °F 77% 30.05 in 10.0 mi SSE 8.1 mph - N/A Rain Light Rain
8:55 AM 55.4 °F 53.6 °F 94% 30.05 in 10.0 mi South 12.7 mph - N/A Rain Light Rain
9:15 AM 57.2 °F 55.4 °F 94% 30.07 in 10.0 mi South 10.4 mph - 0.01 in Thunderstorm Overcast
9:35 AM 55.4 °F 55.4 °F 100% 30.06 in 10.0 mi SSW 13.8 mph 23.0 mph 0.01 in Rain Light Rain
9:55 AM 55.4 °F 55.4 °F 100% 30.05 in 10.0 mi SSW 9.2 mph - 0.01 in Rain Rain
10:15 AM 59.0 °F 55.4 °F 88% 30.05 in 10.0 mi SSW 8.1 mph - N/A   Mostly Cloudy
10:35 AM 59.0 °F 55.4 °F 88% 30.05 in 10.0 mi South 3.5 mph - N/A   Mostly Cloudy
10:55 AM 59.0 °F 55.4 °F 88% 30.05 in 10.0 mi SW 5.8 mph - N/A   Scattered Clouds
11:15 AM 60.8 °F 53.6 °F 77% 30.05 in 10.0 mi SW 6.9 mph - N/A   Clear
11:35 AM 62.6 °F 51.8 °F 68% 30.03 in 10.0 mi SW 5.8 mph - N/A   Scattered Clouds
11:55 AM 64.4 °F 53.6 °F 68% 30.02 in 10.0 mi SW 8.1 mph - N/A   Clear
12:15 PM 66.2 °F 51.8 °F 60% 30.01 in 10.0 mi South 8.1 mph - N/A   Clear
12:35 PM 68.0 °F 51.8 °F 56% 30.00 in 10.0 mi SW 8.1 mph - N/A   Scattered Clouds
12:55 PM 69.8 °F 53.6 °F 56% 29.99 in 10.0 mi SW 9.2 mph - N/A   Clear
1:15 PM 69.8 °F 53.6 °F 56% 29.98 in 10.0 mi SW 17.3 mph 23.0 mph N/A   Scattered Clouds
1:35 PM 69.8 °F 51.8 °F 53% 29.98 in 10.0 mi South 13.8 mph 20.7 mph N/A   Scattered Clouds
2:15 PM 71.6 °F 50.0 °F 46% 29.97 in 10.0 mi SSW 16.1 mph 19.6 mph N/A   Clear
2:35 PM 71.6 °F 48.2 °F 43% 29.96 in 10.0 mi SSW 24.2 mph 29.9 mph N/A   Clear
2:55 PM 73.4 °F 48.2 °F 41% 29.95 in 10.0 mi SW 16.1 mph 21.9 mph N/A   Scattered Clouds
3:15 PM 73.4 °F 48.2 °F 41% 29.95 in 10.0 mi SW 15.0 mph 19.6 mph N/A   Clear
3:35 PM 73.4 °F 48.2 °F 41% 29.93 in 10.0 mi SSW 20.7 mph 32.2 mph N/A   Clear
3:55 PM 73.4 °F 50.0 °F 44% 29.93 in 10.0 mi SW 15.0 mph 28.8 mph N/A   Scattered Clouds
4:15 PM 73.4 °F 48.2 °F 41% 29.92 in 10.0 mi SW 16.1 mph 25.3 mph N/A   Scattered Clouds
4:35 PM 73.4 °F 48.2 °F 41% 29.92 in 10.0 mi WSW 17.3 mph 24.2 mph N/A   Scattered Clouds
4:55 PM 73.4 °F 46.4 °F 38% 29.91 in 10.0 mi SW 19.6 mph 28.8 mph N/A   Clear
5:15 PM 77.0 °F 42.8 °F 29% 29.90 in 10.0 mi WSW 19.6 mph 36.8 mph N/A   Clear
5:35 PM 73.4 °F 42.8 °F 33% 29.91 in 10.0 mi SW 17.3 mph 28.8 mph N/A   Clear
5:55 PM 73.4 °F 42.8 °F 33% 29.91 in 10.0 mi SW 13.8 mph 24.2 mph N/A   Clear
6:15 PM 73.4 °F 42.8 °F 33% 29.91 in 10.0 mi SSW 16.1 mph 20.7 mph N/A   Clear
6:35 PM 73.4 °F 41.0 °F 31% 29.91 in 10.0 mi SW 12.7 mph 17.3 mph N/A   Clear
6:55 PM 73.4 °F 41.0 °F 31% 29.92 in 10.0 mi SW 15.0 mph 19.6 mph N/A   Clear
7:15 PM 71.6 °F 42.8 °F 35% 29.92 in 10.0 mi SW 15.0 mph 21.9 mph N/A   Scattered Clouds
7:35 PM 71.6 °F 42.8 °F 35% 29.92 in 10.0 mi SSW 15.0 mph 20.7 mph N/A   Scattered Clouds
7:55 PM 69.8 °F 42.8 °F 38% 29.91 in 10.0 mi SSW 11.5 mph 19.6 mph N/A   Clear
8:15 PM 69.8 °F 44.6 °F 40% 29.91 in 10.0 mi SSW 11.5 mph 17.3 mph N/A   Clear
8:35 PM 69.8 °F 46.4 °F 43% 29.94 in 10.0 mi SSW 11.5 mph 16.1 mph N/A   Mostly Cloudy
8:55 PM 68.0 °F 46.4 °F 46% 29.97 in 10.0 mi WNW 10.4 mph - N/A Thunderstorm Overcast
9:15 PM 66.2 °F 51.8 °F 60% 29.99 in 10.0 mi NW 9.2 mph 17.3 mph N/A   Overcast
9:35 PM 64.4 °F 53.6 °F 68% 29.99 in 10.0 mi NNW 6.9 mph - N/A   Overcast
9:55 PM 62.6 °F 53.6 °F 72% 29.99 in 10.0 mi NNE 6.9 mph - N/A   Overcast
10:15 PM 62.6 °F 53.6 °F 72% 29.98 in 10.0 mi Calm Calm - N/A   Overcast
10:35 PM 60.8 °F 53.6 °F 77% 30.00 in 10.0 mi North 9.2 mph - N/A Rain Light Rain